TimeCDT,TemperatureF,Dew PointF,Humidity,Sea Level PressureIn,VisibilityMPH,Wind Direction,Wind SpeedMPH,Gust SpeedMPH,PrecipitationIn,Events,Conditions,WindDirDegrees,DateUTC
12:14 AM,23.0,19.4,86,30.34,10.0,SE,5.8,-,N/A,,Overcast,130,2014-03-24 05:14:00
12:34 AM,23.0,19.4,86,30.33,10.0,SE,6.9,-,N/A,,Overcast,140,2014-03-24 05:34:00
12:54 AM,24.8,19.4,80,30.33,10.0,SE,8.1,-,N/A,,Overcast,130,2014-03-24 05:54:00
1:14 AM,24.8,17.6,74,30.32,10.0,SE,8.1,-,N/A,,Overcast,140,2014-03-24 06:14:00
1:34 AM,24.8,17.6,74,30.31,10.0,SSE,10.4,-,N/A,,Overcast,150,2014-03-24 06:34:00
1:54 AM,24.8,17.6,74,30.30,10.0,SSE,8.1,-,N/A,,Overcast,150,2014-03-24 06:54:00
2:14 AM,24.8,17.6,74,30.31,10.0,SSE,6.9,-,N/A,,Overcast,150,2014-03-24 07:14:00
2:34 AM,24.8,17.6,74,30.30,10.0,SSE,4.6,-,N/A,,Overcast,160,2014-03-24 07:34:00
2:54 AM,24.8,17.6,74,30.30,10.0,SSE,4.6,-,N/A,,Overcast,150,2014-03-24 07:54:00
3:14 AM,24.8,17.6,74,30.29,10.0,SSE,5.8,-,N/A,,Overcast,160,2014-03-24 08:14:00
3:34 AM,24.8,15.8,69,30.29,10.0,SSE,3.5,-,N/A,,Overcast,150,2014-03-24 08:34:00
3:54 AM,23.0,17.6,80,30.29,10.0,Calm,Calm,-,N/A,,Overcast,0,2014-03-24 08:54:00
4:14 AM,23.0,17.6,80,30.29,10.0,Calm,Calm,-,N/A,,Overcast,0,2014-03-24 09:14:00
4:34 AM,23.0,15.8,74,30.29,10.0,Calm,Calm,-,N/A,,Overcast,0,2014-03-24 09:34:00
4:54 AM,24.8,17.6,74,30.29,10.0,Calm,Calm,-,N/A,,Overcast,0,2014-03-24 09:54:00
5:14 AM,23.0,17.6,80,30.29,10.0,Calm,Calm,-,N/A,,Overcast,0,2014-03-24 10:14:00
5:34 AM,23.0,15.8,74,30.28,10.0,Calm,Calm,-,N/A,,Overcast,0,2014-03-24 10:34:00
5:54 AM,23.0,17.6,80,30.28,10.0,Calm,Calm,-,N/A,,Overcast,0,2014-03-24 10:54:00
6:14 AM,23.0,17.6,80,30.28,10.0,Calm,Calm,-,N/A,,Overcast,0,2014-03-24 11:14:00
6:34 AM,21.2,17.6,86,30.28,10.0,Calm,Calm,-,N/A,,Overcast,0,2014-03-24 11:34:00
6:54 AM,21.2,17.6,86,30.28,10.0,Calm,Calm,-,N/A,,Overcast,0,2014-03-24 11:54:00
7:14 AM,21.2,17.6,86,30.28,10.0,Calm,Calm,-,N/A,,Overcast,0,2014-03-24 12:14:00
7:34 AM,21.2,17.6,86,30.28,10.0,North,3.5,-,N/A,,Mostly Cloudy,350,2014-03-24 12:34:00
7:54 AM,21.2,17.6,86,30.29,10.0,Calm,Calm,-,N/A,,Mostly Cloudy,0,2014-03-24 12:54:00
8:14 AM,21.2,17.6,86,30.29,10.0,Calm,Calm,-,N/A,,Mostly Cloudy,0,2014-03-24 13:14:00
8:34 AM,21.2,19.4,93,30.29,10.0,Calm,Calm,-,N/A,,Scattered Clouds,0,2014-03-24 13:34:00
8:54 AM,24.8,19.4,80,30.29,10.0,NW,3.5,-,N/A,,Clear,310,2014-03-24 13:54:00
9:14 AM,26.6,21.2,80,30.29,10.0,West,4.6,-,N/A,,Clear,280,2014-03-24 14:14:00
9:34 AM,26.6,21.2,80,30.29,10.0,West,6.9,-,N/A,,Clear,280,2014-03-24 14:34:00
9:55 AM,28.4,21.2,74,30.28,10.0,WNW,11.5,17.3,N/A,,Clear,290,2014-03-24 14:55:00
10:14 AM,30.2,19.4,64,30.28,10.0,WNW,13.8,19.6,N/A,,Clear,290,2014-03-24 15:14:00
10:34 AM,30.2,19.4,64,30.27,10.0,WNW,15.0,19.6,N/A,,Clear,300,2014-03-24 15:34:00
10:55 AM,30.2,19.4,64,30.27,10.0,WNW,16.1,25.3,N/A,,Scattered Clouds,300,2014-03-24 15:55:00
11:14 AM,28.4,17.6,64,30.28,10.0,NW,23.0,27.6,N/A,,Mostly Cloudy,310,2014-03-24 16:14:00
11:34 AM,30.2,17.6,60,30.27,10.0,WNW,21.9,28.8,N/A,,Mostly Cloudy,290,2014-03-24 16:34:00
11:54 AM,30.2,15.8,55,30.28,10.0,WNW,19.6,33.4,N/A,,Scattered Clouds,290,2014-03-24 16:54:00
12:14 PM,30.2,10.4,44,30.28,10.0,NW,26.5,33.4,N/A,,Scattered Clouds,310,2014-03-24 17:14:00
12:34 PM,30.2,8.6,40,30.28,10.0,NW,23.0,28.8,N/A,,Clear,310,2014-03-24 17:34:00
12:54 PM,30.2,8.6,40,30.28,10.0,NW,18.4,27.6,N/A,,Clear,310,2014-03-24 17:54:00
1:14 PM,30.2,8.6,40,30.27,10.0,WNW,21.9,27.6,N/A,,Clear,290,2014-03-24 18:14:00
1:34 PM,30.2,10.4,44,30.27,10.0,NW,21.9,28.8,N/A,,Scattered Clouds,310,2014-03-24 18:34:00
1:54 PM,32.0,12.2,44,30.26,10.0,WNW,19.6,25.3,N/A,,Scattered Clouds,290,2014-03-24 18:54:00
2:14 PM,30.2,12.2,47,30.25,10.0,NW,19.6,28.8,N/A,,Scattered Clouds,310,2014-03-24 19:14:00
2:34 PM,30.2,10.4,44,30.24,10.0,WNW,24.2,28.8,N/A,,Scattered Clouds,300,2014-03-24 19:34:00
2:54 PM,32.0,10.4,41,30.23,10.0,NW,19.6,25.3,N/A,,Scattered Clouds,310,2014-03-24 19:54:00
3:14 PM,30.2,10.4,44,30.22,10.0,NW,17.3,27.6,N/A,,Scattered Clouds,320,2014-03-24 20:14:00
3:34 PM,32.0,12.2,44,30.22,10.0,WNW,18.4,26.5,N/A,,Scattered Clouds,300,2014-03-24 20:34:00
3:54 PM,33.8,10.4,38,30.21,10.0,WNW,19.6,27.6,N/A,,Scattered Clouds,300,2014-03-24 20:54:00
4:14 PM,32.0,10.4,41,30.20,10.0,NW,21.9,25.3,N/A,,Scattered Clouds,310,2014-03-24 21:14:00
4:34 PM,32.0,8.6,38,30.20,10.0,WNW,23.0,29.9,N/A,,Scattered Clouds,300,2014-03-24 21:34:00
4:54 PM,33.8,10.4,38,30.20,10.0,NW,20.7,28.8,N/A,,Scattered Clouds,310,2014-03-24 21:54:00
5:14 PM,32.0,10.4,41,30.19,10.0,WNW,18.4,25.3,N/A,,Mostly Cloudy,300,2014-03-24 22:14:00
5:34 PM,30.2,10.4,44,30.19,10.0,NW,20.7,31.1,N/A,,Scattered Clouds,310,2014-03-24 22:34:00
5:54 PM,32.0,10.4,41,30.19,10.0,NW,17.3,21.9,N/A,,Scattered Clouds,310,2014-03-24 22:54:00
6:14 PM,32.0,12.2,44,30.19,10.0,NW,13.8,20.7,N/A,,Scattered Clouds,320,2014-03-24 23:14:00
6:34 PM,30.2,12.2,47,30.18,10.0,WNW,17.3,-,N/A,,Scattered Clouds,300,2014-03-24 23:34:00
6:54 PM,30.2,15.8,55,30.19,7.0,NW,20.7,31.1,N/A,Snow,Snow,310,2014-03-24 23:54:00
7:14 PM,28.4,19.4,69,30.19,10.0,NW,20.7,26.5,N/A,,Scattered Clouds,320,2014-03-25 00:14:00
7:34 PM,28.4,19.4,69,30.20,10.0,NW,23.0,29.9,N/A,,Mostly Cloudy,310,2014-03-25 00:34:00
7:54 PM,26.6,19.4,74,30.19,10.0,WNW,15.0,20.7,N/A,,Mostly Cloudy,300,2014-03-25 00:54:00
8:14 PM,26.6,19.4,74,30.20,10.0,WNW,11.5,-,N/A,,Scattered Clouds,300,2014-03-25 01:14:00
8:34 PM,26.6,19.4,74,30.20,10.0,WNW,12.7,18.4,N/A,,Scattered Clouds,300,2014-03-25 01:34:00
8:54 PM,26.6,12.2,55,30.20,10.0,NW,15.0,24.2,N/A,,Scattered Clouds,320,2014-03-25 01:54:00
9:14 PM,26.6,10.4,51,30.21,10.0,NW,17.3,25.3,N/A,,Scattered Clouds,310,2014-03-25 02:14:00
9:34 PM,26.6,10.4,51,30.21,10.0,NW,15.0,23.0,N/A,,Mostly Cloudy,320,2014-03-25 02:34:00
9:54 PM,26.6,17.6,69,30.22,10.0,NW,17.3,20.7,N/A,,Overcast,320,2014-03-25 02:54:00
10:14 PM,24.8,14.0,64,30.23,10.0,NW,21.9,31.1,N/A,,Overcast,320,2014-03-25 03:14:00
10:34 PM,24.8,15.8,69,30.23,10.0,NNW,16.1,24.2,N/A,,Overcast,340,2014-03-25 03:34:00
10:54 PM,23.0,17.6,80,30.24,10.0,NNW,15.0,23.0,N/A,Snow,Light Snow,340,2014-03-25 03:54:00
11:14 PM,21.2,15.8,80,30.25,10.0,NNW,15.0,18.4,N/A,,Overcast,330,2014-03-25 04:14:00
11:34 PM,21.2,12.2,68,30.26,10.0,NNW,19.6,28.8,N/A,,Overcast,340,2014-03-25 04:34:00
11:54 PM,19.4,12.2,74,30.27,10.0,NNW,17.3,26.5,N/A,,Mostly Cloudy,330,2014-03-25 04:54:00